[[{"header":{"parameterUnit":"m.s-1","parameterCategory":1,"la1":30.2991,"la2":30.254,"lo1":-89.0895,"lo2":-89.0444,"dy":0.0017,"dx":0.0017,"nx":28,"ny":28,"refTime":"2023-08-13T09:00:00:Z","depth":0,"parameterNumber":2,"parameterNumberName":"U-component_of_WINDS"},"data":[0,0,0,0,0,0,0,0,0,0,0,0,0,0,0,0,0,0,0,0,0,0,0,0,0,0,0,0,0,0,0,0,0,0,0,0,0,0,0,0,0,0,0,0,0,0,0,0,0,0,0,0,0,0,0,0,0,0,3.0308,3.0308,0,3.0353,3.0354,3.0354,3.03,3.0298,3.0296,3.0294,3.0338,3.0341,3.0344,0,0,0,0,0,0,0,0,0,0,0,0,0,3.0171,3.0173,3.0308,3.0308,3.0309,3.0353,3.0354,3.0355,3.03,3.0298,3.0295,3.0293,3.0337,3.0341,3.0344,0,0,0,0,0,0,0,0,0,0,0,0,0,3.0225,3.0174,3.0308,3.0287,3.0286,3.0353,3.0354,3.0355,3.0301,3.0298,3.0294,3.0292,3.0336,3.034,3.0345,3.0434,0,0,3.0359,3.0361,0,0,0,0,0,0,0,0,3.0222,3.023,3.029,3.0289,3.0287,3.0318,3.0322,3.0381,3.0301,3.0295,3.0294,3.029,3.0334,3.0338,3.0353,3.0436,3.0438,3.0359,3.0362,3.0364,3.0365,0,0,0,0,0,0,0,3.0218,3.0227,3.0326,3.0291,3.0289,3.0275,3.0279,3.0333,3.0331,3.0295,3.0291,3.0298,3.0332,3.0349,3.0354,3.0438,3.0359,3.0363,3.0366,3.0368,3.0595,3.0598,0,0,0,0,0,0,3.0217,3.0225,3.0324,3.0327,3.0246,3.028,3.0284,3.0311,3.033,3.033,3.03,3.0295,3.0343,3.0349,3.0355,3.0459,3.0364,3.0368,3.0371,3.0591,3.0595,3.0599,0,0,0,0,0,0,3.0214,3.0226,3.0323,3.0275,3.0286,3.0285,3.0316,3.0314,3.033,3.0334,3.0333,3.0318,3.034,3.0349,3.0414,3.046,3.037,3.0374,3.0587,3.0592,3.0597,3.0669,0,0,0,0,0,0,3.0211,3.0226,3.026,3.0276,3.0289,3.0382,3.0318,3.0317,3.0339,3.0332,3.035,3.035,3.0339,3.0408,3.0419,3.0465,3.0378,3.0583,3.059,3.0595,3.0662,3.0676,3.0687,0,0,0,0,0,3.0206,3.0279,3.0262,3.0275,3.0332,3.0385,3.0392,3.0378,3.0343,3.0376,3.0379,3.0349,3.0454,3.0415,3.0427,3.0475,3.058,3.0588,3.0595,3.0657,3.0673,3.0687,0,0,0,0,0,0,3.0267,3.028,3.0262,3.0343,3.0363,3.0376,3.0418,3.0396,3.0426,3.0419,3.04,3.0405,3.0474,3.0481,3.0438,3.0561,3.0511,3.0521,3.0554,3.0569,3.0581,3.0577,3.0382,0,0,0,0,0,3.0291,3.0333,3.0342,3.0412,3.0423,3.0419,3.0442,3.0429,3.0449,3.0457,3.0464,3.0484,3.0521,3.0546,3.058,3.0664,3.0666,3.0703,3.0715,3.0725,3.0733,3.0776,3.0792,3.0623,3.0623,3.0623,0,0,3.0338,3.0351,3.0379,3.0425,3.0439,3.0482,3.0427,3.0475,3.0507,3.0464,3.0526,3.0533,3.0553,3.0628,3.0661,3.0636,3.0781,3.0734,3.0742,3.0745,3.0785,3.0801,3.0816,3.0628,3.0627,3.0626,0,0,3.0447,3.0462,3.0521,3.0537,3.0559,3.0556,3.057,3.0586,3.0588,3.0651,3.062,3.0656,3.0721,3.0737,3.0753,3.0868,3.0841,3.088,3.0943,3.0985,3.0998,3.101,3.1049,3.1063,3.0888,3.0888,3.0889,0,3.0503,3.0568,3.0554,3.0604,3.0625,3.0589,3.0648,3.0664,3.0696,3.0711,3.0682,3.0762,3.0774,3.085,3.0878,3.0894,3.0908,3.0877,3.0998,3.1009,3.102,3.1057,3.1072,3.0893,3.0892,3.0892,3.0891,0,3.0635,3.0681,3.0726,3.0759,3.0784,3.0839,3.0831,3.0859,3.0844,3.0844,3.0907,3.092,3.0955,3.0973,3.0959,3.1048,3.1031,3.1001,3.0949,3.1041,3.1075,3.1089,3.0899,3.0897,3.0896,3.0895,0,0,3.0784,3.0808,3.0824,3.0838,3.086,3.0895,3.0947,3.0982,3.1005,3.1029,3.1071,3.1127,3.1099,3.1117,3.1105,3.1143,3.123,3.1107,3.1107,3.1128,3.1326,3.1347,3.1364,3.1213,3.1216,3.1218,3.1324,0,3.0892,3.0983,3.0971,3.1058,3.1099,3.1066,3.1111,3.1129,3.113,3.1164,3.1164,3.1203,3.1164,3.1175,3.121,3.1212,3.1269,3.1204,3.1251,3.1253,3.1245,3.1382,3.1405,3.1504,3.1337,3.1339,3.1341,0,3.1029,3.1058,3.1149,3.1164,3.1181,3.1222,3.1253,3.1286,3.1305,3.1303,3.1324,3.1305,3.1356,3.1305,3.1374,3.133,3.1349,3.1352,3.1356,3.1358,3.1301,3.1386,3.1535,3.155,3.1362,3.1361,3.1359,0,3.1126,3.1188,3.125,3.1263,3.1282,3.1312,3.1321,3.1337,3.1359,3.1386,3.1399,3.1432,3.1449,3.1474,3.1464,3.1428,3.1534,3.1483,3.1532,3.1533,3.1555,3.1553,3.1707,3.157,3.157,3.157,3.1569,0,3.1247,3.1303,3.1293,3.1332,3.1393,3.1379,3.144,3.1445,3.146,3.1498,3.1471,3.1507,3.1492,3.1526,3.1518,3.1576,3.1584,3.1583,3.158,3.1584,3.1584,3.1594,3.1586,3.1573,3.1573,3.1572,3.1571,0,3.1365,3.1361,3.1426,3.1439,3.1443,3.1488,3.1499,3.1534,3.1533,3.158,3.1591,3.1589,3.1627,3.162,3.1663,3.1658,3.1729,3.1718,3.1722,3.1719,3.1768,3.1763,3.1933,3.1953,3.1805,3.1806,3.1807,0,3.1441,3.1484,3.1501,3.1525,3.1536,3.1575,3.1597,3.1584,3.1607,3.1632,3.1664,3.17,3.1729,3.1792,3.1794,3.1826,3.1815,3.1872,3.1819,3.1822,3.1813,3.181,3.1813,3.1882,3.1884,3.1885,3.1886,0,3.1577,3.1572,3.1605,3.1638,3.1665,3.1689,3.1711,3.1732,3.1721,3.1749,3.1788,3.181,3.1854,3.189,3.192,3.1928,3.1905,3.1903,3.1916,3.192,3.192,3.1918,3.1749,3.1899,3.1897,3.1896,3.1896,3.1895,3.1675,3.1711,3.1728,3.1766,3.1781,3.1802,3.1835,3.1838,3.1871,3.1906,3.1896,3.194,3.1957,3.1995,3.2007,3.204,3.2019,3.2038,3.2042,3.2047,3.2052,3.1916,3.2046,3.2046,3.2045,3.2045,3.2045,0,3.1807,3.1817,3.1852,3.1883,3.1912,3.1889,3.1912,3.1937,3.1977,3.1995,3.2023,3.2068,3.2103,3.2107,3.2139,3.2165,3.2156,3.2174,3.2171,3.2173,3.207,3.2055,3.2182,3.2182,3.2182,3.2182,3.2181,3.2181,3.1879,3.1938,3.1936,3.2001,3.201,3.2054,3.2069,3.2088,3.2102,3.2153,3.2182,3.2185,3.2197,3.223,3.226,3.226,3.2272,3.2295,3.2291,3.2194,3.2181,3.2167,3.2153,3.2298,3.2298,3.2391,3.2391,3.2392]},{"header":{"parameterUnit":"m.s-1","parameterCategory":1,"la1":30.2991,"la2":30.254,"lo1":-89.0895,"lo2":-89.0444,"dy":0.0017,"dx":0.0017,"nx":28,"ny":28,"refTime":"2023-08-13T09:00:00:Z","depth":0,"parameterNumber":3,"parameterNumberName":"V-component_of_WINDS"},"data":[0,0,0,0,0,0,0,0,0,0,0,0,0,0,0,0,0,0,0,0,0,0,0,0,0,0,0,0,0,0,0,0,0,0,0,0,0,0,0,0,0,0,0,0,0,0,0,0,0,0,0,0,0,0,0,0,0,0,-0.1181,-0.1181,0,-0.119,-0.119,-0.119,-0.1182,-0.1182,-0.1181,-0.1181,-0.1191,-0.1192,-0.1192,0,0,0,0,0,0,0,0,0,0,0,0,0,-0.1157,-0.1158,-0.1181,-0.1181,-0.1181,-0.119,-0.119,-0.119,-0.1182,-0.1182,-0.1181,-0.1181,-0.1191,-0.1192,-0.1192,0,0,0,0,0,0,0,0,0,0,0,0,0,-0.1167,-0.1158,-0.1181,-0.1178,-0.1178,-0.119,-0.119,-0.119,-0.1182,-0.1182,-0.1181,-0.1181,-0.1191,-0.1191,-0.1192,-0.1208,0,0,-0.1195,-0.1195,0,0,0,0,0,0,0,0,-0.1166,-0.1168,-0.1178,-0.1178,-0.1178,-0.1184,-0.1185,-0.1196,-0.1182,-0.1181,-0.1181,-0.118,-0.1189,-0.119,-0.1193,-0.1208,-0.1209,-0.1195,-0.1196,-0.1196,-0.1196,0,0,0,0,0,0,0,-0.1166,-0.1167,-0.1185,-0.1179,-0.1178,-0.1177,-0.1178,-0.1187,-0.1188,-0.1181,-0.118,-0.1181,-0.1189,-0.1192,-0.1193,-0.1209,-0.1195,-0.1196,-0.1196,-0.1197,-0.1238,-0.1239,0,0,0,0,0,0,-0.1165,-0.1167,-0.1184,-0.1185,-0.1171,-0.1178,-0.1178,-0.1183,-0.1188,-0.1188,-0.1182,-0.1181,-0.1191,-0.1192,-0.1194,-0.1212,-0.1196,-0.1197,-0.1197,-0.1237,-0.1238,-0.1239,0,0,0,0,0,0,-0.1165,-0.1167,-0.1184,-0.1176,-0.1178,-0.1178,-0.1184,-0.1183,-0.1186,-0.1188,-0.1188,-0.1185,-0.1191,-0.1192,-0.1204,-0.1213,-0.1197,-0.1198,-0.1237,-0.1238,-0.1238,-0.125,0,0,0,0,0,0,-0.1164,-0.1167,-0.1172,-0.1176,-0.1178,-0.1194,-0.1184,-0.1184,-0.1188,-0.1187,-0.1191,-0.1191,-0.119,-0.1203,-0.1205,-0.1214,-0.1199,-0.1236,-0.1237,-0.1238,-0.1249,-0.1251,-0.1253,0,0,0,0,0,-0.1163,-0.1175,-0.1173,-0.1175,-0.1185,-0.1195,-0.1196,-0.1194,-0.1189,-0.1194,-0.1196,-0.1191,-0.1211,-0.1205,-0.1207,-0.1215,-0.1236,-0.1237,-0.1238,-0.1248,-0.1251,-0.1253,0,0,0,0,0,0,-0.1172,-0.1176,-0.1173,-0.1186,-0.119,-0.1193,-0.1201,-0.1197,-0.1203,-0.1202,-0.12,-0.1201,-0.1214,-0.1216,-0.1208,-0.1231,-0.1223,-0.1224,-0.1229,-0.1232,-0.1234,-0.1233,-0.1199,0,0,0,0,0,-0.1176,-0.1183,-0.1186,-0.1197,-0.1199,-0.12,-0.1204,-0.1202,-0.1207,-0.1208,-0.121,-0.1215,-0.1222,-0.1227,-0.1234,-0.1249,-0.125,-0.1256,-0.1258,-0.126,-0.1262,-0.1271,-0.1273,-0.1243,-0.1243,-0.1243,0,0,-0.1183,-0.1186,-0.1191,-0.1199,-0.1202,-0.121,-0.1201,-0.121,-0.1216,-0.121,-0.1221,-0.1223,-0.1228,-0.1242,-0.1248,-0.1244,-0.127,-0.1262,-0.1263,-0.1264,-0.1272,-0.1275,-0.1278,-0.1244,-0.1244,-0.1244,0,0,-0.1201,-0.1204,-0.1214,-0.1217,-0.1222,-0.1222,-0.1225,-0.1228,-0.1229,-0.1241,-0.1237,-0.1244,-0.1257,-0.1261,-0.1264,-0.1284,-0.1281,-0.1287,-0.1298,-0.1306,-0.1308,-0.1311,-0.1318,-0.1321,-0.1288,-0.1288,-0.1288,0,-0.121,-0.1221,-0.1219,-0.1228,-0.1233,-0.1227,-0.1238,-0.1241,-0.1248,-0.1251,-0.1247,-0.1263,-0.1266,-0.1281,-0.1286,-0.1289,-0.1292,-0.1286,-0.1308,-0.131,-0.1312,-0.1319,-0.1322,-0.1289,-0.1289,-0.1289,-0.1289,0,-0.1232,-0.124,-0.1248,-0.1254,-0.1259,-0.1269,-0.1269,-0.1275,-0.1273,-0.1274,-0.1286,-0.129,-0.1297,-0.1301,-0.1299,-0.1316,-0.1313,-0.1308,-0.13,-0.1316,-0.1323,-0.1325,-0.129,-0.129,-0.129,-0.1289,0,0,-0.1255,-0.1261,-0.1264,-0.1267,-0.1272,-0.1279,-0.1289,-0.1296,-0.1301,-0.1306,-0.1315,-0.1326,-0.1322,-0.1326,-0.1325,-0.1333,-0.1349,-0.1327,-0.1327,-0.1331,-0.1368,-0.1372,-0.1375,-0.1347,-0.1347,-0.1347,-0.1368,0,-0.1273,-0.129,-0.1289,-0.1305,-0.1313,-0.1308,-0.1317,-0.1322,-0.1323,-0.133,-0.1332,-0.134,-0.1333,-0.1336,-0.1343,-0.1345,-0.1356,-0.1344,-0.1355,-0.1355,-0.1354,-0.1378,-0.1382,-0.1401,-0.137,-0.1371,-0.1371,0,-0.1296,-0.1302,-0.1319,-0.1324,-0.1327,-0.1335,-0.1342,-0.1349,-0.1354,-0.1354,-0.136,-0.1357,-0.1368,-0.1359,-0.1374,-0.1366,-0.137,-0.1372,-0.1373,-0.1374,-0.1364,-0.138,-0.1407,-0.141,-0.1375,-0.1375,-0.1374,0,-0.1312,-0.1324,-0.1336,-0.1339,-0.1344,-0.135,-0.1353,-0.1358,-0.1362,-0.1369,-0.1372,-0.138,-0.1384,-0.139,-0.1391,-0.1384,-0.1406,-0.1397,-0.1407,-0.1407,-0.1412,-0.1411,-0.144,-0.1414,-0.1414,-0.1414,-0.1414,0,-0.1332,-0.1342,-0.1343,-0.135,-0.1362,-0.1361,-0.1373,-0.1375,-0.138,-0.1388,-0.1385,-0.1392,-0.1392,-0.14,-0.14,-0.1413,-0.1415,-0.1416,-0.1416,-0.1416,-0.1416,-0.1419,-0.1418,-0.1415,-0.1415,-0.1415,-0.1415,0,-0.1351,-0.1352,-0.1365,-0.1369,-0.137,-0.1379,-0.1383,-0.139,-0.1392,-0.1402,-0.1404,-0.1406,-0.1416,-0.1417,-0.1427,-0.1428,-0.1443,-0.1441,-0.1441,-0.1441,-0.1451,-0.145,-0.1482,-0.1487,-0.1458,-0.1459,-0.1459,0,-0.1364,-0.1372,-0.1378,-0.1383,-0.1386,-0.1394,-0.1399,-0.1399,-0.1404,-0.1411,-0.1418,-0.1427,-0.1434,-0.1449,-0.1452,-0.146,-0.1459,-0.147,-0.146,-0.146,-0.1459,-0.1459,-0.146,-0.1471,-0.1472,-0.1472,-0.1472,0,-0.1387,-0.1387,-0.1394,-0.1402,-0.1408,-0.1414,-0.142,-0.1424,-0.1425,-0.1431,-0.144,-0.1446,-0.1457,-0.1466,-0.1475,-0.1478,-0.1475,-0.1475,-0.1478,-0.1478,-0.1478,-0.1479,-0.1446,-0.1474,-0.1474,-0.1474,-0.1474,-0.1474,-0.1404,-0.1411,-0.1416,-0.1425,-0.1429,-0.1434,-0.1441,-0.1444,-0.1452,-0.146,-0.146,-0.1471,-0.1476,-0.1487,-0.1491,-0.15,-0.1496,-0.15,-0.1501,-0.1502,-0.1504,-0.1477,-0.1501,-0.1501,-0.1501,-0.1501,-0.1501,0,-0.1427,-0.143,-0.1438,-0.1446,-0.1453,-0.145,-0.1456,-0.1462,-0.1471,-0.1477,-0.1484,-0.1495,-0.1504,-0.1508,-0.1517,-0.1523,-0.1522,-0.1525,-0.1525,-0.1526,-0.1506,-0.1503,-0.1526,-0.1526,-0.1526,-0.1526,-0.1526,-0.1526,-0.144,-0.1452,-0.1453,-0.1468,-0.1471,-0.1481,-0.1485,-0.149,-0.1495,-0.1507,-0.1515,-0.1517,-0.1522,-0.1531,-0.154,-0.1541,-0.1544,-0.1548,-0.1549,-0.153,-0.1527,-0.1525,-0.1522,-0.1549,-0.1549,-0.1568,-0.1568,-0.1568]}]]